Powrót do katalogu

HYPSO-1

AktywnyNaukaPO
NORAD 51053·PAYLOAD·🇳🇴 Norway

Wystrzelony Jan 13, 2022 z Cape Canaveral Space Force Station

Loading…

Następne Przeloty (najbliższe 24 godziny)

TLE

ŚwieżeSource: Space-Track

Epoka: Sep 13, 2026, 21:42 UTC

1 51053U 22002BX  26256.90460767  .00144244  00000-0  55291-3 0  9994
2 51053  97.2720 342.5608 0003749 266.7223  93.3620 15.87039366260900

Śledź HYPSO-1 w czasie rzeczywistym z AllMySat

Download on the App Store